Regional Weather Roundup
Issued by NWS

Home | Current Version | Previous Version | Text Only | Print | Product List | Glossary Off
Versions: 1 2 3 4 5 6 7 8 9 10 11 12 13 14 15 16 17 18 19 20 21 22 23 24 25 26 27 28 29 30 31 32 33 34 35 36 37 38 39 40 41 42 43 44 45 46 47 48 49 50

000
ASUS43 KBIS 191202
RWRND

NORTH DAKOTA REGIONAL WEATHER ROUNDUP
NATIONAL WEATHER SERVICE BISMARCK ND
700 AM CDT THU OCT 19 2017

NOTE: "FAIR" INDICATES FEW OR NO CLOUDS BELOW 12,000 FEET WITH NO
SIGNIFICANT WEATHER AND/OR OBSTRUCTIONS TO VISIBILITY.


NDZ001>003-009>011-017-191300-
NORTHWEST NORTH DAKOTA

CITY           SKY/WX    TMP DP  RH WIND       PRES   REMARKS
WILLISTON      CLOUDY    36  28  73 SW3       29.72S
6HR MIN TEMP:  34; 6HR MAX TEMP:  45;

MINOT          CLOUDY    47  28  47 S12       29.72F
MINOT AFB      CLOUDY    42  29  59 SE7       29.70F
$$

NDZ018>021-031>035-040>046-191300-
SOUTHWEST NORTH DAKOTA

CITY           SKY/WX    TMP DP  RH WIND       PRES   REMARKS
BISMARCK       CLOUDY    38  29  70 E3        29.82S
6HR MIN TEMP:  34; 6HR MAX TEMP:  40;

DICKINSON      CLOUDY    41  27  57 S8        29.76F
GARRISON         N/A     40  30  67 S8        29.76F
6HR MIN TEMP:  35; 6HR MAX TEMP:  43;

HETTINGER ARPT CLOUDY    35  26  69 CALM      29.82F
$$

NDZ004>008-012>016-024-026-027-054-191300-
NORTHEAST NORTH DAKOTA

CITY           SKY/WX    TMP DP  RH WIND       PRES   REMARKS
GRAND FORKS    CLOUDY    33  27  78 S6        29.87F
GRND FRKS AFB  CLOUDY    33  25  74 S7        29.86F
DEVILS LAKE    CLOUDY    39  32  76 SE8       29.81F
$$

NDZ022-023-025-028>030-036>039-047>053-191300-
SOUTHEAST NORTH DAKOTA

CITY           SKY/WX    TMP DP  RH WIND       PRES   REMARKS
FARGO          CLOUDY    38  30  73 SE7       29.92F
6HR MIN TEMP:  36; 6HR MAX TEMP:  41;

JAMESTOWN      CLOUDY    36  28  73 SE8       29.83F
$$





USA.gov is the U.S. government's official web portal to all federal, state and local government web resources and services.